RA24538 UUML-UUMD

Flight info

Callsign RA24538
Flight time 0h 13m
Altitude 3000
Route ALONG HIGHWAY E30/ALONG RIVER OKA
Aircraft MI8/L-VGDW/C

Departure

Time 2026-04-29 12:20
Airport Severka Airfield (UUML)

Arrival

Time 2026-04-29 12:33
Airport Selnikovo Airfield (UUMD)
Time Latitude Longitude Altitude Speed Heading
2026-04-29 12:06 55.20620 38.67470 426 ft 0 kts 180°
2026-04-29 12:14 55.20618 38.67471 423 ft 0 kts 171°
2026-04-29 12:15 55.20608 38.67480 428 ft 4 kts 119°
2026-04-29 12:15 55.20593 38.67522 426 ft 4 kts 162°
2026-04-29 12:15 55.20571 38.67531 429 ft 2 kts 172°
2026-04-29 12:15 55.20553 38.67537 425 ft 3 kts 168°
2026-04-29 12:16 55.20539 38.67544 425 ft 1 kts 156°
2026-04-29 12:16 55.20535 38.67582 424 ft 4 kts 55°
2026-04-29 12:16 55.20535 38.67584 424 ft 0 kts 56°
2026-04-29 12:17 55.20546 38.67600 450 ft 9 kts 49°
2026-04-29 12:17 55.20671 38.67882 640 ft 42 kts 44°
2026-04-29 12:17 55.20933 38.68384 1005 ft 60 kts 40°
2026-04-29 12:17 55.21173 38.68895 1597 ft 50 kts 30°
2026-04-29 12:18 55.21404 38.69200 2125 ft 34 kts
2026-04-29 12:18 55.21536 38.69060 2558 ft 33 kts 284°
2026-04-29 12:18 55.21357 38.68824 2853 ft 41 kts 210°
2026-04-29 12:18 55.21172 38.68922 2831 ft 29 kts 170°
2026-04-29 12:19 55.21030 38.69127 2704 ft 25 kts 95°
2026-04-29 12:19 55.21012 38.69562 2629 ft 39 kts 84°
2026-04-29 12:19 55.21179 38.69776 2691 ft 19 kts 17°
2026-04-29 12:19 55.21310 38.69852 2700 ft 30 kts 20°
2026-04-29 12:20 55.21491 38.69587 2713 ft 38 kts 309°
2026-04-29 12:20 55.21517 38.69132 2861 ft 38 kts 285°
2026-04-29 12:20 55.21357 38.68667 2934 ft 52 kts 238°
2026-04-29 12:20 55.21024 38.68417 3035 ft 52 kts 214°
2026-04-29 12:21 55.20645 38.68318 3073 ft 62 kts 191°
2026-04-29 12:21 55.20201 38.68415 3144 ft 65 kts 180°
2026-04-29 12:21 55.19770 38.68641 3213 ft 64 kts 166°
2026-04-29 12:21 55.19368 38.69038 2998 ft 65 kts 154°
2026-04-29 12:22 55.19027 38.69533 2743 ft 69 kts 129°
2026-04-29 12:22 55.18773 38.70323 2437 ft 78 kts 110°
2026-04-29 12:22 55.18533 38.71190 2198 ft 79 kts 114°
2026-04-29 12:22 55.18313 38.72093 2018 ft 81 kts 111°
2026-04-29 12:23 55.18000 38.72921 1989 ft 87 kts 141°
2026-04-29 12:23 55.17484 38.73497 2080 ft 84 kts 172°
2026-04-29 12:23 55.16869 38.73563 2272 ft 89 kts 193°
2026-04-29 12:23 55.16272 38.73511 2608 ft 91 kts 182°
2026-04-29 12:24 55.15582 38.73529 2547 ft 109 kts 190°
2026-04-29 12:24 55.14765 38.73676 2171 ft 130 kts 156°
2026-04-29 12:24 55.14090 38.74650 2019 ft 119 kts 125°
2026-04-29 12:24 55.13664 38.75881 2160 ft 118 kts 115°
2026-04-29 12:25 55.13259 38.77208 2158 ft 130 kts 117°
2026-04-29 12:25 55.12778 38.78618 2017 ft 139 kts 117°
2026-04-29 12:25 55.12065 38.81831 1550 ft 140 kts 104°
2026-04-29 12:26 55.11797 38.83447 1558 ft 139 kts 104°
2026-04-29 12:26 55.11497 38.85055 1537 ft 140 kts 108°
2026-04-29 12:26 55.11166 38.86650 1543 ft 139 kts 107°
2026-04-29 12:26 55.10787 38.88194 1556 ft 111 kts 120°
2026-04-29 12:27 55.10491 38.89127 1606 ft 85 kts 115°
2026-04-29 12:27 55.10153 38.89967 1690 ft 84 kts 132°
2026-04-29 12:27 55.09711 38.90750 1587 ft 97 kts 134°
2026-04-29 12:27 55.09242 38.91608 1581 ft 94 kts 136°
2026-04-29 12:28 55.08800 38.92460 1533 ft 96 kts 128°
2026-04-29 12:28 55.08449 38.93428 1490 ft 87 kts 115°
2026-04-29 12:28 55.08317 38.94261 1418 ft 59 kts 92°
2026-04-29 12:28 55.08334 38.94965 1338 ft 58 kts 75°
2026-04-29 12:29 55.08493 38.95519 1519 ft 50 kts 44°
2026-04-29 12:29 55.08690 38.96184 1810 ft 79 kts 72°
2026-04-29 12:29 55.08785 38.97243 1803 ft 94 kts 76°
2026-04-29 12:29 55.08893 38.98348 1876 ft 92 kts 73°
2026-04-29 12:30 55.09036 38.99417 1927 ft 81 kts 69°
2026-04-29 12:30 55.09128 39.00011 1925 ft 76 kts 65°
2026-04-29 12:30 55.09315 39.00906 1915 ft 79 kts 64°
2026-04-29 12:30 55.09525 39.01832 1795 ft 86 kts 62°
2026-04-29 12:31 55.09718 39.02839 1637 ft 85 kts 69°
2026-04-29 12:31 55.09984 39.04081 1397 ft 85 kts 63°
2026-04-29 12:31 55.10141 39.05144 1075 ft 98 kts 84°
2026-04-29 12:31 55.10274 39.05826 1162 ft 81 kts 43°
2026-04-29 12:32 55.10703 39.06495 1276 ft 88 kts 33°
2026-04-29 12:32 55.11180 39.07128 1423 ft 88 kts 26°
2026-04-29 12:32 55.11742 39.07707 1332 ft 99 kts 26°
2026-04-29 12:32 55.12263 39.08344 1216 ft 78 kts 26°
2026-04-29 12:33 55.12705 39.08793 1072 ft 65 kts 37°
2026-04-29 12:33 55.12976 39.09332 831 ft 56 kts 68°
2026-04-29 12:33 55.13088 39.09848 744 ft 33 kts 70°
2026-04-29 12:33 55.13206 39.10239 681 ft 38 kts 55°
2026-04-29 12:34 55.13247 39.10783 1117 ft 54 kts 86°
2026-04-29 12:34 55.13138 39.11513 1536 ft 76 kts 106°
2026-04-29 12:34 55.12851 39.12676 1319 ft 121 kts 116°
2026-04-29 12:34 55.12639 39.13909 1106 ft 79 kts 48°
2026-04-29 12:35 55.12768 39.14324 938 ft 19 kts
2026-04-29 12:35 55.12954 39.14450 758 ft 34 kts 30°
2026-04-29 12:35 55.13177 39.14682 464 ft 10 kts 17°
2026-04-29 12:35 55.13199 39.14623 394 ft 5 kts 43°
2026-04-29 12:36 55.13236 39.14605 374 ft 0 kts 57°
2026-04-29 12:36 55.13242 39.14621 374 ft 5 kts 50°
2026-04-29 12:36 55.13272 39.14654 375 ft 4 kts 31°
2026-04-29 12:36 55.13318 39.14679 410 ft 14 kts 22°
2026-04-29 12:37 55.13407 39.14831 389 ft 10 kts 329°
2026-04-29 12:37 55.13410 39.14830 388 ft 0 kts 326°
2026-04-29 12:37 55.13410 39.14828 388 ft 0 kts 291°